Find OV2-5

NORAD ID: 3428 Int'l Des: 1968-081 Owner: SAMSO Country: US operational
MEOCIRCULAR

Aktuelle Ansicht

3D-Globus wird geladen...

About OV2-5

OV2-5 (NORAD 3428) is a satellite by SAMSO of US. It operates in MEO, CIRCULAR orbit

Nächste Überflüge

Passes for default location (London). Set your location on the main map for personalized predictions.

Höhenverlauf

Loading altitude history...

Zweizeiliger Elementsatz

1 3428U 68081A 26194.89697902 -.00000297 00000-0 00000+0 0 9990
2 3428 2.0580 51.2581 0079114 283.7738 18.0531 1.01560939121327
Epoch: 13. Juli 2026 • Age: 9 hours

Aktueller Status

Höhe 35733.2 km
Apogäum / Perigäum N/A
Geschwindigkeit 3.07 km/s
Subsatellitenpunkt 2.06°N, 100.52°E
Typ other

Most Searched